Location: Bieg
(49.3499°N, 10.3835°E)
Time: 01:39:23
(UTC+00:00)

Cosmos 2082 Rocket - Pass Details

Date: 23 May 2024
Orbit: 832 x 853 km, 71.0° (Epoch: 12 June)

Event Time Altitude Azimuth Distance (km) Brightness Sun altitude
Exits shadow 00:07:03 35° 187° (S) 1,356 2.7 -19.1°
Maximum altitude 00:09:31 69° 114° (ESE) 912 2.3 -19.0°
Drops below altitude 10° 00:15:12 10° 32° (NNE) 2,493 5.8 -18.8°
Sets 00:17:41 0° 31° (NNE) 3,431 6.8 -18.6°
